{"data":{"norad_id":57156,"epoch":"2026-08-25T09:43:26.084928Z","epoch_age_seconds":2375533,"freshness":"OLD","line1":"1 57156U 23090BH  26237.40516302  .06441921  93658-5  51034-3 0  9998","line2":"2 57156  42.9932   2.4300 0006991 316.3633  43.6706 16.39002741176669","mean_motion":16.39002741,"eccentricity":0.0006991,"inclination_deg":42.9932,"raan_deg":2.43,"arg_perigee_deg":316.3633,"mean_anomaly_deg":43.6706,"bstar":0.00051034,"rev_number":17666,"period_min":87.85830334374,"perigee_km":163.87997417002,"apogee_km":173.03342147832,"semimajor_km":6546.5936978242,"source":"CELESTRAK","updated_at":"2026-08-26T09:00:37.468661Z"}}